When you browse on this site, cookies collect data to enhance your experience and personalize the content and advertising you see.
Visit our Privacy Policy to learn more. By continuing to use the site, you agree to this use of cookies and data.
  • en France
  • Liste des pays
  • À 7 jours
  • Température de l'eau
  • Carte météo
  • Widgets météo
  • user-avatar
    Se connecter

    Météo par heure à Luksor

    Ce jour, 26 Février, Mercredi

    Heure Température Précipitation Vent Pression Humidité
    00:00 +11°C° 0 mm 1 m/s 757 mmHg 74%
    01:00 +11°C° 0 mm 1 m/s 757 mmHg 76%
    02:00 +9°C° 0 mm 0 m/s 756 mmHg 79%
    03:00 +9°C° 0 mm 0 m/s 756 mmHg 79%
    04:00 +9°C° 0 mm 0 m/s 757 mmHg 79%
    05:00 +9°C° 0 mm 1 m/s 757 mmHg 79%
    06:00 +11°C° 0 mm 1 m/s 757 mmHg 70%
    07:00 +13°C° 0 mm 1 m/s 757 mmHg 61%
    08:00 +15°C° 0 mm 1 m/s 758 mmHg 52%
    09:00 +18°C° 0 mm 1 m/s 758 mmHg 46%
    10:00 +20°C° 0 mm 1 m/s 758 mmHg 39%
    11:00 +22°C° 0 mm 1 m/s 758 mmHg 32%
    12:00 +23°C° 0 mm 1 m/s 757 mmHg 29%
    13:00 +24°C° 0 mm 1 m/s 756 mmHg 26%
    14:00 +25°C° 0 mm 1 m/s 755 mmHg 22%
    15:00 +25°C° 0 mm 2 m/s 755 mmHg 22%
    16:00 +25°C° 0 mm 2 m/s 755 mmHg 21%
    17:00 +25°C° 0 mm 2 m/s 755 mmHg 21%
    18:00 +23°C° 0 mm 2 m/s 755 mmHg 25%
    19:00 +19°C° 0 mm 2 m/s 756 mmHg 29%
    20:00 +18°C° 0 mm 1 m/s 756 mmHg 33%
    21:00 +16°C° 0 mm 1 m/s 756 mmHg 39%
    22:00 +16°C° 0 mm 2 m/s 756 mmHg 45%
    23:00 +15°C° 0 mm 2 m/s 756 mmHg 51%

    Demain, 27 Février, Jeudi

    Heure Température Précipitation Vent Pression Humidité
    00:00 +14°C° 0 mm 1 m/s 756 mmHg 56%
    01:00 +13°C° 0 mm 1 m/s 756 mmHg 61%
    02:00 +13°C° 0 mm 1 m/s 755 mmHg 67%
    03:00 +12°C° 0 mm 1 m/s 755 mmHg 69%
    04:00 +11°C° 0 mm 0 m/s 755 mmHg 72%
    05:00 +10°C° 0 mm 0 m/s 755 mmHg 75%
    06:00 +14°C° 0 mm 1 m/s 756 mmHg 65%
    07:00 +16°C° 0 mm 1 m/s 756 mmHg 56%
    08:00 +19°C° 0 mm 1 m/s 756 mmHg 47%
    09:00 +21°C° 0 mm 1 m/s 756 mmHg 39%
    10:00 +23°C° 0 mm 1 m/s 756 mmHg 32%
    11:00 +26°C° 0 mm 2 m/s 756 mmHg 24%
    12:00 +27°C° 0 mm 2 m/s 755 mmHg 21%
    13:00 +28°C° 0 mm 2 m/s 754 mmHg 18%
    14:00 +30°C° 0 mm 2 m/s 754 mmHg 15%
    15:00 +29°C° 0 mm 2 m/s 753 mmHg 15%
    16:00 +29°C° 0 mm 2 m/s 753 mmHg 15%
    17:00 +29°C° 0 mm 3 m/s 753 mmHg 15%
    18:00 +27°C° 0 mm 3 m/s 753 mmHg 18%
    19:00 +24°C° 0 mm 2 m/s 753 mmHg 21%
    20:00 +21°C° 0 mm 2 m/s 754 mmHg 24%
    21:00 +20°C° 0 mm 2 m/s 754 mmHg 28%
    22:00 +19°C° 0 mm 2 m/s 754 mmHg 31%
    23:00 +18°C° 0 mm 1 m/s 754 mmHg 35%

    Après-demain, 28 Février, Vendredi

    Heure Température Précipitation Vent Pression Humidité
    00:00 +18°C° 0 mm 1 m/s 753 mmHg 38%
    01:00 +16°C° 0 mm 1 m/s 753 mmHg 40%
    02:00 +15°C° 0 mm 1 m/s 753 mmHg 43%
    03:00 +15°C° 0 mm 1 m/s 753 mmHg 43%
    04:00 +15°C° 0 mm 1 m/s 753 mmHg 43%
    05:00 +15°C° 0 mm 2 m/s 753 mmHg 43%
    06:00 +16°C° 0 mm 2 m/s 753 mmHg 38%
    07:00 +18°C° 0 mm 2 m/s 753 mmHg 34%
    08:00 +20°C° 0 mm 2 m/s 754 mmHg 29%
    09:00 +24°C° 0 mm 2 m/s 754 mmHg 25%
    10:00 +26°C° 0 mm 2 m/s 753 mmHg 20%
    11:00 +28°C° 0 mm 3 m/s 753 mmHg 16%
    12:00 +30°C° 0 mm 3 m/s 752 mmHg 14%
    13:00 +32°C° 0 mm 4 m/s 752 mmHg 12%
    14:00 +33°C° 0 mm 4 m/s 751 mmHg 10%
    15:00 +33°C° 0 mm 4 m/s 751 mmHg 10%
    16:00 +33°C° 0 mm 5 m/s 751 mmHg 10%
    17:00 +32°C° 0 mm 5 m/s 751 mmHg 11%
    18:00 +29°C° 0 mm 5 m/s 751 mmHg 13%
    19:00 +26°C° 0 mm 5 m/s 752 mmHg 16%
    20:00 +23°C° 0 mm 4 m/s 752 mmHg 18%
    21:00 +21°C° 0 mm 4 m/s 753 mmHg 21%
    22:00 +20°C° 0 mm 3 m/s 753 mmHg 23%
    23:00 +19°C° 0 mm 2 m/s 753 mmHg 25%

    29 Février, Samedi

    Heure Température Précipitation Vent Pression Humidité
    00:00 +18°C° 0 mm 2 m/s 753 mmHg 27%
    01:00 +17°C° 0 mm 2 m/s 753 mmHg 29%
    02:00 +17°C° 0 mm 2 m/s 753 mmHg 30%
    03:00 +16°C° 0 mm 2 m/s 753 mmHg 32%
    04:00 +16°C° 0 mm 2 m/s 753 mmHg 33%
    05:00 +15°C° 0 mm 2 m/s 753 mmHg 35%
    06:00 +16°C° 0 mm 2 m/s 753 mmHg 32%
    07:00 +18°C° 0 mm 2 m/s 754 mmHg 29%
    08:00 +20°C° 0 mm 2 m/s 754 mmHg 27%
    09:00 +22°C° 0 mm 3 m/s 754 mmHg 24%
    10:00 +25°C° 0 mm 4 m/s 754 mmHg 21%
    11:00 +27°C° 0 mm 5 m/s 754 mmHg 18%
    12:00 +28°C° 0 mm 6 m/s 753 mmHg 16%
    13:00 +29°C° 0 mm 7 m/s 753 mmHg 14%
    14:00 +31°C° 0 mm 8 m/s 752 mmHg 12%
    15:00 +29°C° 0 mm 8 m/s 752 mmHg 13%
    16:00 +28°C° 0 mm 8 m/s 752 mmHg 15%
    17:00 +27°C° 0 mm 8 m/s 752 mmHg 16%
    18:00 +24°C° 0 mm 7 m/s 753 mmHg 19%
    19:00 +22°C° 0 mm 7 m/s 753 mmHg 21%
    20:00 +20°C° 0 mm 6 m/s 754 mmHg 24%
    21:00 +19°C° 0 mm 5 m/s 754 mmHg 28%
    22:00 +17°C° 0 mm 4 m/s 754 mmHg 33%
    23:00 +16°C° 0 mm 3 m/s 754 mmHg 37%

    1 Mars, Dimanche

    Heure Température Précipitation Vent Pression Humidité
    00:00 +14°C° 0 mm 3 m/s 754 mmHg 40%
    01:00 +13°C° 0 mm 3 m/s 754 mmHg 43%
    02:00 +13°C° 0 mm 3 m/s 754 mmHg 47%
    03:00 +12°C° 0 mm 3 m/s 754 mmHg 50%
    04:00 +12°C° 0 mm 3 m/s 753 mmHg 53%
    05:00 +11°C° 0 mm 3 m/s 753 mmHg 56%
    06:00 +12°C° 0 mm 4 m/s 754 mmHg 54%
    07:00 +13°C° 0 mm 4 m/s 754 mmHg 52%
    08:00 +15°C° 0 mm 4 m/s 755 mmHg 49%
    09:00 +17°C° 0 mm 5 m/s 755 mmHg 41%
    10:00 +21°C° 0 mm 5 m/s 754 mmHg 32%
    11:00 +23°C° 0 mm 6 m/s 754 mmHg 24%
    12:00 +26°C° 0 mm 6 m/s 754 mmHg 21%
    13:00 +27°C° 0 mm 6 m/s 753 mmHg 17%
    14:00 +29°C° 0 mm 5 m/s 752 mmHg 13%
    15:00 +28°C° 0 mm 6 m/s 752 mmHg 14%
    16:00 +28°C° 0 mm 6 m/s 752 mmHg 14%
    17:00 +27°C° 0 mm 6 m/s 752 mmHg 14%
    18:00 +24°C° 0 mm 6 m/s 753 mmHg 18%
    19:00 +22°C° 0 mm 6 m/s 753 mmHg 22%
    20:00 +20°C° 0 mm 6 m/s 753 mmHg 26%
    21:00 +17°C° 0 mm 5 m/s 754 mmHg 29%
    22:00 +17°C° 0 mm 4 m/s 754 mmHg 33%
    23:00 +16°C° 0 mm 3 m/s 754 mmHg 36%

    2 Mars, Lundi

    Heure Température Précipitation Vent Pression Humidité
    00:00 +15°C° 0 mm 2 m/s 754 mmHg 39%
    01:00 +14°C° 0 mm 2 m/s 753 mmHg 41%
    02:00 +13°C° 0 mm 2 m/s 753 mmHg 44%
    03:00 +12°C° 0 mm 2 m/s 753 mmHg 47%
    04:00 +12°C° 0 mm 2 m/s 753 mmHg 49%
    05:00 +10°C° 0 mm 2 m/s 753 mmHg 51%
    06:00 +13°C° 0 mm 2 m/s 753 mmHg 47%
    07:00 +14°C° 0 mm 2 m/s 754 mmHg 43%
    08:00 +16°C° 0 mm 2 m/s 754 mmHg 39%
    09:00 +18°C° 0 mm 2 m/s 754 mmHg 33%
    10:00 +21°C° 0 mm 2 m/s 754 mmHg 27%
    11:00 +24°C° 0 mm 2 m/s 754 mmHg 21%
    12:00 +26°C° 0 mm 2 m/s 753 mmHg 17%
    13:00 +28°C° 0 mm 3 m/s 752 mmHg 13%
    14:00 +29°C° 0 mm 3 m/s 751 mmHg 10%
    15:00 +29°C° 0 mm 3 m/s 751 mmHg 10%
    16:00 +29°C° 0 mm 4 m/s 751 mmHg 9%
    17:00 +29°C° 0 mm 4 m/s 751 mmHg 9%
    18:00 +26°C° 0 mm 4 m/s 752 mmHg 11%
    19:00 +23°C° 0 mm 5 m/s 752 mmHg 14%
    20:00 +21°C° 0 mm 5 m/s 752 mmHg 16%
    21:00 +19°C° 0 mm 4 m/s 752 mmHg 18%
    22:00 +18°C° 0 mm 3 m/s 753 mmHg 21%
    23:00 +17°C° 0 mm 3 m/s 753 mmHg 23%
    Voir plus